1509303600.25,28469,9.75,71388.3,-10.51,-11.37,-11.37,0,*64
1509303601.52,28470,9.81,71390.5,-10.53,-11.37,-11.37,0,*6E
1509303602.81,28471,9.81,71392.3,-10.51,-11.33,-11.37,0,*69
1509303604.09,28472,9.81,71392.0,-10.51,-11.37,-11.37,0,*6E
1509303605.38,28473,9.81,71396.0,-10.51,-11.37,-11.37,0,*6F
1509303606.67,28474,9.75,71396.0,-10.51,-11.37,-11.37,0,*68
1509303607.91,28475,9.81,71400.5,-10.53,-11.37,-11.23,0,*6E
1509303609.12,28476,9.75,71396.5,-10.53,-11.23,-11.23,0,*68
1509303610.37,28477,9.75,71400.0,-10.51,-11.23,-11.23,0,*6B
1509303611.63,28478,9.81,71404.0,-10.51,-11.33,-11.23,0,*65
1509303612.87,28479,9.75,71404.8,-10.51,-11.19,-11.19,0,*65
1509303614.11,28480,9.81,71406.8,-10.51,-11.23,-11.23,0,*63
1509303615.32,28481,9.81,71410.0,-10.49,-11.19,-11.19,0,*6B
1509303616.58,28482,9.75,71408.0,-10.51,-11.23,-11.37,0,*64
1509303617.87,28483,9.81,71412.5,-10.51,-11.37,-11.33,0,*64
1509303619.13,28484,9.81,71412.0,-10.49,-11.33,-11.33,0,*6E
1509303620.39,28485,9.75,71410.8,-10.49,-11.33,-11.33,0,*6F
1509303621.6,28486,9.81,71414.0,-10.49,-11.19,-11.19,0,*6C
1509303622.84,28487,9.75,71414.5,-10.51,-11.23,-11.23,0,*64
1509303624.08,28488,9.81,71416.8,-10.51,-11.23,-11.23,0,*6B
1509303625.29,28489,9.81,71416.3,-10.49,-11.15,-11.19,0,*6F
1509303626.53,28490,9.75,71418.0,-10.51,-11.23,-11.23,0,*62
1509303627.77,28491,9.81,71422.8,-10.51,-11.19,-11.19,0,*63
1509303628.98,28492,9.75,71416.8,-10.49,-11.15,-11.15,0,*69
1509303630.22,28493,9.81,71422.8,-10.51,-11.23,-11.23,0,*61
1509303631.46,28494,9.75,71420.5,-10.49,-11.07,-11.19,0,*60
1509303632.68,28495,9.75,71422.8,-10.49,-11.15,-11.15,0,*6E
1509303633.91,28496,9.75,71424.0,-10.51,-11.19,-11.19,0,*64
1509303635.13,28497,9.81,71426.8,-10.49,-11.15,-11.19,0,*60
1509303636.37,28498,9.75,71424.3,-10.49,-11.07,-11.15,0,*60
1509303637.61,28499,9.75,71422.3,-10.51,-11.11,-11.19,0,*63
1509303638.85,28500,9.75,71422.0,-10.49,-11.07,-11.15,0,*60
1509303640.07,28501,9.81,71424.5,-10.49,-11.01,-11.15,0,*67
1509303641.31,28502,9.75,71424.8,-10.49,-11.07,-11.15,0,*62
1509303642.52,28503,9.75,71424.8,-10.49,-11.15,-11.15,0,*60
1509303643.74,28504,9.75,71424.5,-10.49,-11.15,-11.15,0,*67
1509303644.97,28505,9.75,71422.5,-10.51,-11.19,-11.11,0,*67
1509303646.18,28506,9.81,71426.8,-10.49,-11.19,-11.15,0,*69
1509303647.42,28507,9.75,71422.8,-10.51,-11.19,-11.23,0,*64
1509303648.66,28508,9.75,71422.3,-10.49,-11.07,-11.15,0,*68
1509303649.9,28509,9.75,71418.8,-10.49,-11.07,-11.15,0,*69
1509303651.17,28510,9.81,71422.8,-10.49,-11.07,-11.07,0,*62
1509303652.42,28511,9.75,71418.3,-10.49,-11.01,-11.07,0,*65
1509303653.66,28512,9.75,71416.8,-10.49,-11.07,-11.15,0,*63
1509303654.93,28513,9.75,71414.8,-10.49,-11.07,-11.07,0,*61
1509303656.21,28514,9.75,71418.0,-10.49,-11.07,-11.07,0,*66
1509303657.45,28515,9.75,71414.8,-10.49,-11.07,-11.15,0,*64
1509303658.72,28516,9.75,71408.8,-10.49,-11.07,-11.07,0,*64
1509303659.99,28517,9.75,71410.3,-10.49,-11.07,-11.07,0,*65
1509303661.21,28518,9.75,71404.5,-10.45,-11.01,-11.01,0,*66
1509303662.5,28519,9.75,71400.3,-10.47,-11.07,-11.07,0,*65
1509303663.75,28520,9.75,71402.5,-10.49,-11.01,-11.07,0,*67
1509303664.99,28521,9.75,71398.3,-10.49,-11.15,-11.07,0,*63
1509303666.23,28522,9.75,71392.8,-10.49,-11.15,-11.07,0,*60
1509303667.45,28523,9.75,71390.5,-10.49,-11.15,-11.15,0,*62
1509303668.69,28524,9.75,71388.0,-10.49,-11.15,-11.07,0,*66
1509303669.9,28525,9.75,71386.8,-10.49,-11.19,-11.15,0,*68
1509303671.13,28526,9.75,71384.8,-10.47,-11.15,-11.15,0,*69
1509303672.36,28527,9.75,71386.5,-10.47,-11.19,-11.15,0,*64
1509303673.6,28528,9.75,71388.8,-10.47,-11.15,-11.19,0,*6B
1509303674.83,28529,9.81,71384.0,-10.47,-11.15,-11.19,0,*6A
1509303676.06,28530,9.75,71380.0,-10.47,-11.19,-11.15,0,*62
1509303677.29,28531,9.81,71384.8,-10.47,-11.15,-11.19,0,*63
1509303678.52,28532,9.75,71376.3,-10.47,-11.15,-11.19,0,*60
1509303679.76,28533,9.81,71382.0,-10.47,-11.15,-11.15,0,*6D
1509303680.99,28534,9.75,71376.3,-10.47,-11.19,-11.19,0,*6A
1509303682.22,28535,9.81,71378.8,-10.47,-11.19,-11.15,0,*67
1509303683.45,28536,9.75,71374.0,-10.47,-11.19,-11.15,0,*64
1509303684.68,28537,9.75,71378.3,-10.47,-11.19,-11.19,0,*69
1509303685.91,28538,9.75,71380.5,-10.47,-11.19,-11.15,0,*6A
1509303687.14,28539,9.75,71382.3,-10.47,-11.15,-11.15,0,*67
1509303688.37,28540,9.75,71386.0,-10.47,-11.15,-11.19,0,*65
1509303689.61,28541,9.81,71390.8,-10.47,-11.15,-11.19,0,*64
1509303690.83,28542,9.75,71386.5,-10.47,-11.19,-11.19,0,*6B
1509303692.07,28543,9.75,71384.0,-10.47,-11.15,-11.15,0,*6A
1509303693.3,28544,9.81,71390.0,-10.47,-11.15,-11.19,0,*61
1509303694.53,28545,9.75,71384.5,-10.47,-11.15,-11.19,0,*60
1509303695.76,28546,9.75,71384.8,-10.47,-11.19,-11.15,0,*63
1509303697.0,28547,9.75,71388.5,-10.47,-11.15,-11.15,0,*6E
1509303698.23,28548,9.75,71380.3,-10.47,-11.15,-11.19,0,*6D
1509303699.46,28549,9.75,71384.0,-10.47,-11.19,-11.19,0,*60
1509303700.69,28550,9.75,71386.3,-10.47,-11.19,-11.19,0,*68
1509303701.92,28551,9.81,71386.0,-10.47,-11.15,-11.15,0,*69
1509303703.16,28552,9.75,71384.5,-10.47,-11.15,-11.19,0,*66
1509303704.39,28553,9.81,71384.5,-10.47,-11.15,-11.15,0,*6B
1509303705.62,28554,9.75,71386.3,-10.47,-11.19,-11.15,0,*60
1509303706.83,28555,9.75,71386.3,-10.49,-11.15,-11.15,0,*63
1509303708.1,28556,9.75,71384.8,-10.47,-11.15,-11.07,0,*6D
1509303709.33,28557,9.75,71386.8,-10.47,-11.15,-11.15,0,*6F
1509303710.57,28558,9.75,71386.8,-10.47,-11.01,-11.15,0,*65
1509303711.83,28559,9.75,71388.5,-10.47,-11.07,-11.15,0,*62
1509303713.09,28560,9.75,71388.5,-10.47,-11.07,-11.01,0,*6D
1509303714.36,28561,9.75,71394.0,-10.47,-11.07,-11.01,0,*6C
1509303715.65,28562,9.81,71396.0,-10.47,-11.07,-11.07,0,*69
1509303716.91,28563,9.81,71398.3,-10.47,-11.07,-11.01,0,*6E
1509303718.13,28564,9.75,71396.3,-10.45,-11.01,-10.97,0,*63
1509303719.43,28565,9.75,71402.8,-10.47,-11.07,-11.07,0,*6E
1509303720.72,28566,9.75,71406.5,-10.47,-11.07,-11.07,0,*6D
1509303721.96,28567,9.75,71408.0,-10.49,-11.01,-11.07,0,*64
1509303723.19,28568,9.75,71410.8,-10.45,-10.97,-10.97,0,*61
1509303724.43,28569,9.75,71412.0,-10.47,-11.01,-11.01,0,*62
1509303725.69,28570,9.75,71414.5,-10.47,-11.07,-11.01,0,*6C
1509303726.98,28571,9.81,71414.5,-10.47,-11.07,-11.07,0,*6B
1509303728.25,28572,9.75,71414.8,-10.47,-11.07,-11.01,0,*6E
1509303729.49,28573,9.75,71414.5,-10.45,-11.07,-10.97,0,*63
1509303730.73,28574,9.75,71416.0,-10.47,-11.01,-11.01,0,*6E
1509303731.97,28575,9.75,71416.0,-10.47,-11.01,-11.01,0,*6F
1509303733.19,28576,9.75,71416.5,-10.45,-10.97,-10.89,0,*61
1509303734.42,28577,9.75,71420.0,-10.45,-11.01,-10.97,0,*61
1509303735.68,28578,9.81,71420.5,-10.47,-11.01,-11.07,0,*64
1509303736.9,28579,9.75,71418.5,-10.45,-11.01,-11.01,0,*61
1509303738.15,28580,9.75,71420.8,-10.45,-11.01,-11.07,0,*61
1509303739.37,28581,9.75,71418.8,-10.45,-11.01,-10.97,0,*68
1509303740.61,28582,9.75,71420.8,-10.47,-11.01,-11.01,0,*67
1509303741.84,28583,9.75,71420.0,-10.45,-11.01,-10.97,0,*6A
1509303743.06,28584,9.75,71422.8,-10.45,-10.97,-10.97,0,*63
1509303744.28,28585,9.81,71422.5,-10.45,-10.97,-11.01,0,*6C
1509303745.52,28586,9.75,71420.8,-10.47,-11.01,-11.01,0,*63
1509303746.74,28587,9.75,71420.3,-10.45,-11.01,-11.01,0,*60
1509303747.98,28588,9.75,71416.3,-10.47,-11.01,-11.01,0,*6D
1509303749.27,28589,9.75,71420.5,-10.47,-11.07,-11.07,0,*6C
1509303750.54,28590,9.81,71420.0,-10.47,-11.07,-11.01,0,*62
1509303751.83,28591,9.75,71416.5,-10.47,-11.07,-11.07,0,*65
1509303753.07,28592,9.75,71414.5,-10.47,-11.01,-11.01,0,*66
1509303754.31,28593,9.81,71422.3,-10.47,-11.01,-11.01,0,*67
1509303755.53,28594,9.75,71416.3,-10.45,-10.97,-10.97,0,*62
1509303756.82,28595,9.75,71418.3,-10.47,-11.07,-11.07,0,*61
1509303758.04,28596,9.75,71418.0,-10.45,-11.01,-11.01,0,*60
1509303759.33,28597,9.75,71412.5,-10.47,-11.07,-11.07,0,*63
1509303760.62,28598,9.75,71418.5,-10.47,-11.07,-11.07,0,*6C
1509303761.89,28599,9.75,71416.5,-10.47,-11.07,-11.01,0,*6B
1509303763.11,28600,9.81,71420.3,-10.45,-10.97,-10.97,0,*6C
1509303764.33,28601,9.75,71420.0,-10.45,-11.01,-11.01,0,*6D
1509303765.56,28602,9.75,71422.3,-10.45,-10.97,-10.97,0,*6E
1509303766.78,28603,9.75,71420.8,-10.45,-10.97,-10.97,0,*6F
1509303768.05,28604,9.81,71424.0,-10.47,-11.01,-11.07,0,*6C
1509303769.29,28605,9.75,71420.0,-10.47,-11.01,-11.01,0,*6B
1509303770.51,28606,9.75,71424.3,-10.45,-10.97,-10.97,0,*6A
1509303771.75,28607,9.75,71424.5,-10.47,-10.93,-11.01,0,*63
1509303772.99,28608,9.75,71422.0,-10.47,-10.93,-11.01,0,*6C
1509303774.25,28609,9.75,71424.3,-10.47,-11.07,-10.93,0,*6B
1509303775.47,28610,9.75,71424.3,-10.45,-11.01,-11.01,0,*6D
1509303776.71,28611,9.75,71424.8,-10.47,-11.01,-11.01,0,*6E
1509303777.93,28612,9.75,71430.0,-10.45,-10.97,-10.97,0,*6F
1509303779.16,28613,9.75,71428.8,-10.45,-11.01,-10.97,0,*60
1509303780.38,28614,9.81,71432.0,-10.45,-10.97,-11.01,0,*67
1509303781.6,28615,9.75,71430.8,-10.45,-10.97,-10.97,0,*68
1509303782.82,28616,9.75,71430.0,-10.45,-11.01,-10.97,0,*65
1509303784.05,28617,9.81,71434.3,-10.45,-11.01,-11.01,0,*6A
1509303785.27,28618,9.81,71436.8,-10.45,-10.97,-10.97,0,*65
1509303786.51,28619,9.75,71434.8,-10.47,-11.01,-11.01,0,*66
1509303787.73,28620,9.81,71436.3,-10.45,-10.97,-10.97,0,*6E
1509303788.97,28621,9.75,71432.5,-10.47,-11.01,-10.93,0,*67
1509303790.19,28622,9.75,71436.0,-10.45,-10.97,-10.85,0,*6F
1509303791.41,28623,9.75,71438.5,-10.45,-10.97,-10.97,0,*6D
1509303792.63,28624,9.81,71436.3,-10.45,-11.01,-11.01,0,*6A
1509303793.85,28625,9.75,71438.0,-10.45,-11.01,-11.01,0,*6B
1509303795.07,28626,9.75,71438.3,-10.45,-10.97,-10.97,0,*68
1509303796.3,28627,9.75,71436.0,-10.45,-10.97,-10.97,0,*69
1509303797.52,28628,9.75,71436.5,-10.45,-11.01,-10.97,0,*68
1509303798.75,28629,9.75,71436.3,-10.45,-10.97,-10.97,0,*67
1509303799.97,28630,9.75,71438.0,-10.45,-10.97,-10.97,0,*6F
1509303801.19,28631,9.75,71438.3,-10.45,-11.01,-10.97,0,*60
1509303802.41,28632,9.75,71436.0,-10.45,-10.97,-11.01,0,*63
1509303803.64,28633,9.75,71438.0,-10.45,-10.97,-10.97,0,*6C
1509303804.86,28634,9.75,71440.3,-10.45,-10.97,-10.97,0,*6B
1509303806.08,28635,9.75,71438.5,-10.45,-10.97,-11.01,0,*64
1509303807.35,28636,9.75,71438.5,-10.47,-11.01,-11.07,0,*6D
1509303808.57,28637,9.75,71438.8,-10.45,-10.97,-10.89,0,*67
1509303809.79,28638,9.75,71440.0,-10.45,-10.97,-10.97,0,*67
1509303811.02,28639,9.75,71438.0,-10.45,-10.97,-10.97,0,*66
1509303812.24,28640,9.75,71436.8,-10.45,-11.01,-11.01,0,*68
1509303813.46,28641,9.75,71436.3,-10.45,-10.97,-11.01,0,*67
1509303814.7,28642,9.75,71436.3,-10.47,-11.01,-11.01,0,*68
1509303815.92,28643,9.75,71436.3,-10.45,-11.01,-10.97,0,*65
1509303817.15,28644,9.81,71436.0,-10.43,-10.97,-10.97,0,*6A
1509303818.38,28645,9.75,71434.0,-10.43,-10.97,-10.97,0,*6B
1509303819.61,28646,9.75,71430.3,-10.45,-10.97,-10.97,0,*6E
1509303820.83,28647,9.75,71430.0,-10.45,-10.97,-10.97,0,*6F
1509303822.05,28648,9.81,71432.0,-10.45,-10.97,-11.01,0,*6E
1509303823.27,28649,9.75,71426.0,-10.45,-11.01,-11.01,0,*61
1509303824.53,28650,9.81,71430.0,-10.47,-11.07,-11.01,0,*6D
1509303825.75,28651,9.75,71426.0,-10.45,-10.97,-11.01,0,*66
1509303826.98,28652,9.75,71422.0,-10.45,-11.01,-10.97,0,*65
1509303828.2,28653,9.75,71420.0,-10.45,-10.97,-10.97,0,*6A
1509303829.42,28654,9.75,71418.5,-10.45,-11.01,-11.01,0,*6D
1509303830.64,28655,9.75,71414.3,-10.45,-11.01,-10.97,0,*62
1509303831.86,28656,9.81,71418.5,-10.45,-11.01,-11.01,0,*6F
1509303833.15,28657,9.75,71414.3,-10.47,-11.07,-11.07,0,*6C
1509303834.37,28658,9.75,71410.0,-10.45,-10.97,-11.01,0,*6F
1509303835.67,28659,9.81,71412.5,-10.47,-11.07,-11.07,0,*62
1509303836.89,28660,9.75,71410.5,-10.45,-10.97,-11.01,0,*64
1509303838.11,28661,9.75,71404.5,-10.45,-11.01,-10.97,0,*65
1509303839.33,28662,9.81,71406.3,-10.45,-10.97,-11.01,0,*66
1509303840.54,28663,9.75,71404.8,-10.45,-11.11,-11.01,0,*68
1509303841.81,28664,9.75,71404.0,-10.47,-11.07,-11.01,0,*6A
1509303843.03,28665,9.75,71400.3,-10.45,-11.01,-11.11,0,*6E
1509303844.29,28666,9.81,71406.3,-10.47,-11.07,-11.01,0,*68
1509303845.51,28667,9.81,71404.3,-10.45,-11.01,-10.97,0,*63
1509303846.73,28668,9.81,71404.8,-10.45,-11.01,-11.01,0,*62
1509303847.95,28669,9.75,71400.8,-10.45,-10.97,-11.01,0,*6D
1509303849.17,28670,9.75,71400.5,-10.45,-11.01,-11.01,0,*6B
1509303850.39,28671,9.75,71402.5,-10.45,-11.01,-10.97,0,*64
1509303851.69,28672,9.75,71400.5,-10.47,-11.07,-11.07,0,*6B
1509303852.91,28673,9.75,71398.8,-10.45,-11.01,-11.01,0,*68
1509303854.15,28674,9.75,71402.5,-10.47,-11.01,-11.01,0,*6D
1509303855.41,28675,9.75,71400.3,-10.47,-11.01,-11.07,0,*6A
1509303856.64,28676,9.75,71400.8,-10.45,-11.01,-10.97,0,*63
1509303857.86,28677,9.75,71404.8,-10.45,-10.97,-10.97,0,*6C
1509303859.08,28678,9.75,71404.5,-10.45,-11.01,-11.01,0,*63
1509303860.3,28679,9.81,71408.0,-10.45,-11.01,-10.97,0,*6C
1509303861.53,28680,9.75,71408.5,-10.45,-11.01,-10.97,0,*6A
1509303862.77,28681,9.75,71408.3,-10.47,-11.01,-11.01,0,*67
1509303863.99,28682,9.75,71406.8,-10.45,-11.01,-10.97,0,*68
1509303865.21,28683,9.81,71412.8,-10.45,-11.01,-10.97,0,*69
1509303866.45,28684,9.75,71408.3,-10.47,-11.01,-11.01,0,*62
1509303867.68,28685,9.75,71408.8,-10.45,-11.01,-10.97,0,*6F
1509303868.9,28686,9.75,71412.5,-10.45,-11.01,-10.97,0,*6C
1509303870.12,28687,9.75,71412.5,-10.45,-11.01,-10.97,0,*6D
1509303871.34,28688,9.81,71418.3,-10.45,-11.01,-11.01,0,*6C
1509303872.57,28689,9.75,71416.3,-10.45,-10.97,-10.97,0,*6D
1509303873.79,28690,9.75,71418.5,-10.45,-11.01,-10.97,0,*6B
1509303875.01,28691,9.81,71422.5,-10.45,-11.01,-11.01,0,*64
1509303876.23,28692,9.75,71418.8,-10.45,-11.01,-10.97,0,*69
1509303877.45,28693,9.75,71420.5,-10.45,-11.01,-10.97,0,*68
1509303878.68,28694,9.75,71422.5,-10.45,-11.01,-10.97,0,*6F
1509303879.9,28695,9.75,71420.0,-10.45,-11.01,-11.01,0,*60
1509303881.12,28696,9.75,71418.5,-10.45,-11.01,-10.97,0,*6D
1509303882.34,28697,9.75,71420.5,-10.45,-10.97,-11.01,0,*6C
1509303883.56,28698,9.75,71422.5,-10.45,-11.01,-11.01,0,*6D
1509303884.78,28699,9.75,71420.3,-10.45,-10.97,-11.01,0,*62
1509303886.0,28700,9.75,71426.0,-10.45,-10.97,-10.97,0,*6D
1509303887.24,28701,9.75,71424.3,-10.47,-11.01,-11.01,0,*6E
1509303888.46,28702,9.75,71426.3,-10.45,-11.01,-11.01,0,*6F
1509303889.73,28703,9.75,71426.8,-10.47,-11.01,-11.07,0,*6A
1509303890.95,28704,9.75,71426.8,-10.45,-11.01,-10.97,0,*67
1509303892.17,28705,9.75,71420.5,-10.45,-11.01,-11.01,0,*68
1509303893.4,28706,9.75,71426.0,-10.45,-10.97,-10.97,0,*6B
1509303894.62,28707,9.75,71422.0,-10.45,-11.01,-10.97,0,*64
1509303895.85,28708,9.75,71420.8,-10.43,-11.01,-10.97,0,*6D
1509303897.07,28709,9.75,71422.5,-10.45,-10.97,-10.97,0,*64
1509303898.3,28710,9.75,71422.8,-10.45,-10.97,-10.97,0,*6C
1509303899.52,28711,9.81,71424.8,-10.45,-10.97,-11.01,0,*63
1509303900.74,28712,9.75,71418.0,-10.45,-10.97,-10.97,0,*6E
1509303901.97,28713,9.75,71418.0,-10.45,-10.97,-10.97,0,*6F
1509303903.19,28714,9.75,71416.0,-10.45,-11.01,-10.97,0,*66
1509303904.46,28715,9.75,71416.8,-10.47,-11.01,-11.07,0,*6D
1509303905.68,28716,9.75,71412.8,-10.45,-10.97,-11.01,0,*64
1509303906.9,28717,9.75,71416.3,-10.45,-11.01,-10.97,0,*65
1509303908.17,28718,9.75,71414.0,-10.47,-11.01,-11.07,0,*60
1509303909.39,28719,9.75,71412.0,-10.45,-11.01,-10.97,0,*6B
1509303910.64,28720,9.75,71412.5,-10.45,-11.07,-11.01,0,*69
1509303911.86,28721,9.75,71414.5,-10.45,-10.97,-11.01,0,*60
1509303913.08,28722,9.75,71412.3,-10.45,-10.97,-11.01,0,*63
1509303914.3,28723,9.75,71416.5,-10.45,-10.97,-10.97,0,*6C
1509303915.57,28724,9.75,71412.0,-10.47,-11.01,-11.07,0,*6F
1509303916.79,28725,9.75,71412.8,-10.45,-11.01,-10.97,0,*64
1509303918.05,28726,9.75,71412.8,-10.47,-11.07,-11.01,0,*6D
1509303919.28,28727,9.75,71414.3,-10.45,-10.97,-10.97,0,*68
1509303920.5,28728,9.75,71412.0,-10.45,-10.97,-10.97,0,*67
1509303921.72,28729,9.75,71414.5,-10.45,-11.01,-10.89,0,*67
1509303922.94,28730,9.75,71412.3,-10.45,-11.01,-11.01,0,*6E
1509303924.16,28731,9.75,71418.0,-10.45,-11.01,-11.01,0,*6F
1509303925.38,28732,9.75,71418.0,-10.45,-10.97,-11.01,0,*62
1509303926.61,28733,9.81,71422.8,-10.43,-11.01,-10.89,0,*6A
1509303927.83,28734,9.75,71418.5,-10.45,-10.97,-11.01,0,*64
1509303929.05,28735,9.75,71420.3,-10.45,-10.97,-10.97,0,*6B
1509303930.27,28736,9.75,71422.5,-10.45,-10.97,-10.97,0,*68
1509303931.49,28737,9.75,71422.8,-10.45,-11.01,-11.01,0,*69
1509303932.72,28738,9.75,71420.3,-10.45,-10.97,-10.97,0,*66
1509303933.94,28739,9.75,71422.0,-10.45,-10.97,-10.97,0,*67
1509303935.17,28740,9.75,71420.3,-10.45,-10.97,-10.97,0,*69
1509303936.39,28741,9.81,71426.3,-10.43,-10.97,-11.01,0,*60
1509303937.62,28742,9.75,71424.5,-10.43,-10.97,-11.01,0,*63
1509303938.84,28743,9.75,71424.0,-10.43,-10.89,-10.97,0,*63
1509303940.06,28744,9.75,71424.0,-10.45,-11.01,-11.01,0,*6D
1509303941.28,28745,9.75,71426.5,-10.45,-11.01,-10.97,0,*62
1509303942.5,28746,9.75,71424.8,-10.45,-10.97,-10.89,0,*60
1509303943.72,28747,9.75,71426.0,-10.45,-11.01,-11.01,0,*6E
1509303944.95,28748,9.75,71430.5,-10.45,-10.97,-10.97,0,*61
1509303946.17,28749,9.75,71430.8,-10.45,-10.97,-10.97,0,*60
1509303947.39,28750,9.75,71430.5,-10.45,-11.01,-10.97,0,*66
1509303948.62,28751,9.75,71434.8,-10.43,-10.97,-11.01,0,*61
1509303949.85,28752,9.75,71434.3,-10.43,-10.97,-10.97,0,*6C
1509303951.07,28753,9.75,71434.5,-10.43,-10.97,-11.01,0,*63
1509303952.34,28754,9.75,71434.5,-10.47,-11.07,-11.01,0,*68
1509303953.56,28755,9.75,71438.3,-10.43,-10.97,-11.01,0,*65
1509303954.79,28756,9.75,71438.3,-10.43,-10.97,-10.97,0,*68
1509303956.02,28757,9.75,71434.3,-10.43,-10.97,-10.97,0,*69
1509303957.25,28758,9.75,71438.8,-10.43,-10.97,-11.01,0,*68
1509303958.48,28759,9.75,71434.8,-10.43,-10.97,-10.97,0,*67
1509303959.7,28760,9.75,71438.3,-10.43,-11.01,-10.97,0,*63
1509303960.93,28761,9.75,71436.3,-10.43,-10.97,-10.97,0,*6C
1509303962.16,28762,9.75,71438.0,-10.43,-10.97,-10.97,0,*6F
1509303963.39,28763,9.75,71438.5,-10.45,-10.97,-10.97,0,*68
1509303964.61,28764,9.75,71434.5,-10.45,-10.97,-11.01,0,*61
1509303965.83,28765,9.75,71436.3,-10.45,-10.97,-10.97,0,*6E
1509303967.06,28766,9.75,71436.3,-10.43,-10.97,-10.97,0,*6B
1509303968.29,28767,9.75,71434.8,-10.43,-10.97,-11.01,0,*64
1509303969.52,28768,9.75,71434.0,-10.43,-10.97,-10.97,0,*65
1509303970.74,28769,9.75,71432.0,-10.43,-10.97,-11.01,0,*6A
1509303971.97,28770,9.75,71434.5,-10.43,-11.01,-10.97,0,*62
1509303973.2,28771,9.75,71434.5,-10.43,-10.97,-10.97,0,*6D
1509303974.42,28772,9.75,71436.0,-10.45,-11.01,-10.97,0,*66
1509303975.65,28773,9.75,71436.0,-10.43,-11.01,-10.97,0,*61
1509303976.87,28774,9.75,71434.0,-10.43,-10.89,-11.01,0,*69
1509303978.1,28775,9.75,71432.8,-10.43,-11.01,-10.97,0,*67
1509303979.33,28776,9.75,71438.0,-10.43,-10.97,-10.97,0,*6A
1509303980.55,28777,9.75,71438.3,-10.43,-11.01,-10.97,0,*65
1509303981.78,28778,9.75,71436.5,-10.43,-11.01,-10.97,0,*6A
1509303983.04,28779,9.75,71438.5,-10.41,-10.97,-10.97,0,*67
1509303984.26,28780,9.75,71438.0,-10.43,-10.89,-11.01,0,*62
1509303985.49,28781,9.75,71438.3,-10.43,-10.97,-10.97,0,*62
1509303986.71,28782,9.75,71438.3,-10.43,-11.01,-10.97,0,*6F
1509303987.94,28783,9.81,71438.0,-10.43,-10.97,-10.97,0,*60
1509303989.2,28784,9.81,71436.3,-10.41,-10.97,-11.01,0,*6B
1509303990.43,28785,9.75,71434.5,-10.43,-10.97,-10.97,0,*66
1509303991.65,28786,9.75,71434.3,-10.43,-11.01,-10.97,0,*6B
1509303992.88,28787,9.75,71432.8,-10.43,-11.01,-10.97,0,*6A
1509303994.11,28788,9.75,71428.3,-10.43,-10.97,-10.97,0,*6B
1509303995.34,28789,9.75,71428.3,-10.43,-10.97,-11.01,0,*64
1509303996.59,28790,9.75,71426.8,-10.41,-10.97,-10.97,0,*60
1509303997.82,28791,9.75,71430.8,-10.43,-10.97,-10.97,0,*63
1509303999.05,28792,9.75,71420.0,-10.43,-10.97,-11.01,0,*6E
1509304000.28,28793,9.75,71422.8,-10.43,-11.01,-10.97,0,*6F
1509304001.51,28794,9.75,71420.3,-10.43,-10.97,-10.97,0,*66
1509304002.74,28795,9.75,71422.8,-10.43,-10.97,-10.97,0,*67
1509304003.96,28796,9.75,71422.0,-10.43,-10.97,-11.01,0,*6A
1509304005.19,28797,9.75,71426.0,-10.43,-10.97,-11.01,0,*6B
1509304006.41,28798,9.75,71426.3,-10.45,-10.97,-10.97,0,*6C
1509304007.63,28799,9.75,71422.5,-10.45,-11.01,-10.97,0,*63
1509304008.86,28800,9.75,71420.5,-10.43,-11.01,-10.97,0,*6A
1509304010.09,28801,9.75,71420.3,-10.43,-11.01,-11.01,0,*65
1509304011.32,28802,9.75,71422.0,-10.43,-10.97,-10.97,0,*66
1509304012.54,28803,9.75,71420.0,-10.45,-10.97,-11.01,0,*6F
1509304013.76,28804,9.75,71420.5,-10.43,-11.01,-10.97,0,*6E
1509304014.99,28805,9.75,71422.5,-10.43,-11.01,-11.01,0,*61
1509304016.22,28806,9.75,71418.8,-10.43,-11.01,-10.97,0,*6C
1509304017.45,28807,9.75,71416.3,-10.43,-11.01,-10.97,0,*6D
1509304018.67,28808,9.75,71416.0,-10.43,-11.01,-11.01,0,*6C
1509304019.9,28809,9.75,71418.0,-10.43,-10.97,-10.97,0,*6D
1509304021.13,28810,9.75,71416.5,-10.43,-10.97,-11.01,0,*6B
1509304022.36,28811,9.75,71418.5,-10.43,-10.97,-10.97,0,*64
1509304023.61,28812,9.75,71412.3,-10.41,-10.97,-10.97,0,*65
1509304024.87,28813,9.75,71406.0,-10.41,-10.97,-10.97,0,*64
1509304026.1,28814,9.75,71410.8,-10.43,-10.97,-10.97,0,*61
1509304027.33,28815,9.75,71410.3,-10.43,-10.97,-10.97,0,*60
1509304028.56,28816,9.75,71412.3,-10.43,-10.97,-10.97,0,*63
1509304029.79,28817,9.75,71410.3,-10.43,-10.97,-10.97,0,*62
1509304031.01,28818,9.75,71406.5,-10.43,-10.97,-11.01,0,*63
1509304032.23,28819,9.75,71404.8,-10.45,-11.01,-11.01,0,*6A
1509304033.45,28820,9.75,71404.0,-10.45,-11.01,-10.97,0,*6E
1509304034.68,28821,9.75,71404.0,-10.43,-10.97,-11.01,0,*69
1509304035.91,28822,9.75,71402.8,-10.43,-10.97,-10.97,0,*64
1509304037.14,28823,9.75,71400.3,-10.43,-11.01,-10.97,0,*6B
1509304038.37,28824,9.75,71396.3,-10.43,-11.01,-10.97,0,*6C
1509304039.59,28825,9.75,71398.0,-10.43,-11.01,-11.01,0,*63
1509304040.82,28826,9.75,71396.5,-10.43,-11.01,-10.97,0,*6E
1509304042.04,28827,9.75,71394.0,-10.43,-10.97,-11.01,0,*6F
1509304043.26,28828,9.75,71394.3,-10.45,-11.01,-11.01,0,*68
1509304044.49,28829,9.75,71388.0,-10.43,-11.01,-11.01,0,*6F
1509304045.71,28830,9.75,71392.0,-10.43,-11.01,-11.01,0,*67
1509304046.97,28831,9.75,71390.3,-10.41,-11.01,-10.97,0,*6A
1509304048.19,28832,9.75,71388.8,-10.43,-10.97,-11.01,0,*6B
1509304049.42,28833,9.75,71384.0,-10.43,-11.01,-11.01,0,*64
1509304050.64,28834,9.75,71382.8,-10.43,-11.01,-10.89,0,*62
1509304051.87,28835,9.75,71380.3,-10.43,-10.97,-11.01,0,*6C
1509304053.09,28836,9.75,71384.5,-10.43,-11.01,-11.01,0,*61
1509304054.32,28837,9.75,71380.5,-10.43,-11.01,-11.01,0,*60
1509304055.54,28838,9.75,71380.0,-10.43,-10.97,-11.01,0,*61
1509304056.76,28839,9.75,71386.3,-10.45,-10.97,-11.01,0,*66
1509304057.98,28840,9.75,71386.8,-10.45,-10.97,-11.11,0,*69
1509304059.21,28841,9.75,71392.8,-10.43,-10.97,-11.01,0,*6F
1509304060.46,28842,9.75,71390.3,-10.41,-10.97,-11.01,0,*6E
1509304061.69,28843,9.75,71392.8,-10.43,-10.97,-11.01,0,*6D
1509304062.91,28844,9.75,71390.3,-10.43,-11.01,-11.01,0,*64
1509304064.14,28845,9.75,71388.3,-10.43,-11.01,-10.97,0,*6B
1509304065.36,28846,9.75,71390.0,-10.45,-10.97,-10.97,0,*60
1509304066.58,28847,9.75,71388.0,-10.45,-11.11,-11.11,0,*61
1509304067.8,28848,9.75,71392.0,-10.43,-11.01,-11.01,0,*68
1509304069.03,28849,9.75,71396.3,-10.43,-10.97,-11.01,0,*67
1509304070.25,28850,9.75,71394.5,-10.43,-11.11,-11.01,0,*60
1509304071.47,28851,9.75,71396.5,-10.45,-10.97,-10.97,0,*66
1509304072.69,28852,9.75,71398.0,-10.43,-11.01,-11.01,0,*63
1509304073.92,28853,9.75,71402.3,-10.43,-10.97,-11.01,0,*6C
1509304075.17,28854,9.75,71404.3,-10.41,-11.01,-11.01,0,*67
1509304076.39,28855,9.75,71404.0,-10.43,-11.11,-10.97,0,*6B
1509304077.62,28856,9.75,71404.5,-10.43,-10.97,-11.01,0,*69
1509304078.85,28857,9.75,71404.5,-10.43,-11.01,-10.97,0,*68
1509304080.08,28858,9.75,71406.3,-10.43,-11.01,-10.97,0,*67
1509304081.33,28859,9.75,71404.0,-10.41,-11.01,-10.97,0,*64
1509304082.56,28860,9.75,71408.8,-10.43,-10.97,-11.01,0,*6C
1509304083.79,28861,9.75,71410.0,-10.43,-11.01,-10.97,0,*6D
1509304085.01,28862,9.75,71406.8,-10.43,-11.01,-10.97,0,*6E
1509304086.24,28863,9.75,71410.3,-10.43,-11.11,-10.97,0,*6E
1509304087.46,28864,9.75,71412.0,-10.43,-11.01,-11.01,0,*66
1509304088.69,28865,9.75,71410.3,-10.43,-10.97,-11.01,0,*69
1509304089.91,28866,9.75,71416.5,-10.45,-11.01,-11.01,0,*62
1509304091.15,28867,9.75,71414.8,-10.47,-11.01,-11.01,0,*61
1509304092.37,28868,9.75,71416.5,-10.45,-10.97,-11.01,0,*62